Location: Campo Claro
(10.4907°N, 66.8285°W)
Time: 06:19:38
(UTC+00:00)

BREEZE-M DEB (TANK) - Pass Details

Date: 26 June 2022
Orbit: 341 x 14877 km, 49.6° (Epoch: 11 August)

Event Time Altitude Azimuth Distance (km) Brightness Sun altitude
Rises 02:12:11 0° 312° (NW) 20,264 12.1 -42.2°
Reaches altitude 10° 03:00:20 10° 297° (WNW) 16,764 11.2 -49.6°
Maximum altitude 03:39:57 15° 268° (W) 10,781 9.8 -54.0°
Drops below altitude 10° 03:57:41 10° 235° (SW) 7,453 8.8 -55.2°
Enters shadow 03:59:50 - 230° (SW) 7,108 8.7 -55.3°
